Hourly Data Report for January 09, 2003

TORONTO CITY
ONTARIO

43°40'00.000" N
79°24'00.000" W
112.50 m
6158355
71508
XTO

Download Data

Hourly Data (January 2003)
Hourly Data Report for January 9, 2003
TIME
LST
Temp Definition
°C
Dew Point Definition
°C
Rel Hum Definition
%
Precip. Amount Definition
mm

Wind Dir Definition
10's deg

Wind Spd Definition
km/h
Visibility Definition
km
Stn Press Definition
kPa
Hmdx Definition


Wind Chill Definition


Weather Definition


00:00 4.2 -0.1 74     0 LegendMM 96.55     LegendNANA
01:00
02:00 5.4 -0.7 65     0 LegendMM 96.71     LegendNANA
03:00 5.1 -1.0 65     0 LegendMM 96.88     LegendNANA
04:00 4.8 -0.7 68     0 LegendMM 97.01     LegendNANA
05:00 4.4 -0.1 73     0 LegendMM 97.16     LegendNANA
06:00 4.3 -0.4 71     0 LegendMM 97.36     LegendNANA
07:00 3.7 -0.2 76     0 LegendMM 97.56     LegendNANA
08:00 3.4 -0.5 76     0 LegendMM 97.69     LegendNANA
09:00 1.8 -1.0 82     0 LegendMM 97.83     LegendNANA
10:00 1.4 -0.8 85     0 LegendMM 97.91     LegendNANA
11:00 1.7 -0.2 87     0 LegendMM 97.94     LegendNANA
12:00 1.2 -0.3 90     0 LegendMM 97.89     LegendNANA
13:00 0.1 -1.3 90     0 LegendMM 97.85     LegendNANA
14:00 -0.4 -1.3 94     0 LegendMM 97.85     LegendNANA
15:00 -0.2 -1.1 94     0 LegendMM 97.86     LegendNANA
16:00 -0.2 -1.0 94     0 LegendMM 97.85     LegendNANA
17:00 0.1 -0.7 94     0 LegendMM 97.87     LegendNANA
18:00 0.1 -0.6 95     0 LegendMM 97.90     LegendNANA
19:00 -0.5 -1.1 96     0 LegendMM 97.91     LegendNANA
20:00 -0.8 -1.4 96     0 LegendMM 97.93     LegendNANA
21:00 -3.2 -4.1 93     0 LegendMM 98.07     LegendNANA
22:00 -3.2 -4.7 89     0 LegendMM 98.20     LegendNANA
23:00 -3.3 -6.0 82     0 LegendMM 98.32     LegendNANA

Notes on Data Quality.

Legend

  • E = Estimated
  • M = Missing
  • NA = Not Available*
  • [empty] = Indicates an unobserved value
Date modified: